[[{"header":{"parameterUnit":"m.s-1","parameterCategory":1,"la1":30.2991,"la2":30.254,"lo1":-89.0895,"lo2":-89.0444,"dy":0.0017,"dx":0.0017,"nx":28,"ny":28,"refTime":"2024-04-30T09:00:00:Z","depth":0,"parameterNumber":2,"parameterNumberName":"U-component_of_WINDS"},"data":[0,0,0,0,0,0,0,0,0,0,0,0,0,0,0,0,0,0,0,0,0,0,0,0,0,0,0,0,0,0,0,0,0,0,0,0,0,0,0,0,0,0,0,0,0,0,0,0,0,0,0,0,0,0,0,0,0,0,0.3299,0.3299,0,0.334,0.3341,0.3341,0.3418,0.3419,0.3421,0.3422,0.3464,0.3464,0.3464,0,0,0,0,0,0,0,0,0,0,0,0,0,0.3288,0.3287,0.3299,0.3299,0.33,0.334,0.3341,0.3341,0.3418,0.3419,0.3421,0.3423,0.3465,0.3464,0.3464,0,0,0,0,0,0,0,0,0,0,0,0,0,0.3307,0.3287,0.3299,0.3343,0.3347,0.334,0.3341,0.3342,0.3417,0.342,0.3422,0.3424,0.3465,0.3464,0.3464,0.3417,0,0,0.3463,0.3463,0,0,0,0,0,0,0,0,0.3306,0.3307,0.3336,0.334,0.3345,0.3376,0.3352,0.3367,0.3417,0.3391,0.3422,0.3425,0.3433,0.3436,0.3439,0.3419,0.3421,0.3463,0.3463,0.3462,0.3462,0,0,0,0,0,0,0,0.3304,0.3306,0.3315,0.3336,0.3342,0.3361,0.3366,0.3356,0.3399,0.3393,0.3399,0.3403,0.3436,0.3439,0.344,0.3422,0.3463,0.3462,0.3462,0.3462,0.3369,0.3367,0,0,0,0,0,0,0.3296,0.3304,0.3314,0.3317,0.333,0.336,0.3365,0.3364,0.3399,0.3407,0.3401,0.3406,0.3438,0.344,0.3442,0.3391,0.3462,0.3462,0.3462,0.3371,0.3369,0.3366,0,0,0,0,0,0,0.3296,0.3297,0.3312,0.3312,0.3316,0.3357,0.3355,0.3364,0.3366,0.3405,0.3413,0.3395,0.344,0.3442,0.3423,0.3394,0.3462,0.3461,0.3374,0.337,0.3367,0.3288,0,0,0,0,0,0,0.3295,0.3296,0.3278,0.3311,0.3315,0.3292,0.3353,0.3363,0.3365,0.3373,0.3402,0.3409,0.3442,0.3424,0.3423,0.3394,0.3461,0.3377,0.3372,0.3368,0.3294,0.3282,0.3273,0,0,0,0,0,0.3295,0.3253,0.3277,0.3277,0.3294,0.329,0.3293,0.3332,0.3363,0.3345,0.3371,0.3408,0.3397,0.3421,0.3421,0.3392,0.3379,0.3374,0.3369,0.3298,0.3285,0.3273,0,0,0,0,0,0,0.3215,0.3258,0.3285,0.3253,0.3267,0.3303,0.3283,0.3316,0.3321,0.3328,0.3376,0.3382,0.3357,0.3373,0.3399,0.335,0.3394,0.3389,0.334,0.3328,0.3318,0.3315,0.3461,0,0,0,0,0,0.3194,0.3187,0.3226,0.3194,0.32,0.324,0.324,0.3269,0.3286,0.3292,0.3316,0.3331,0.3332,0.3331,0.3333,0.3297,0.3305,0.3277,0.3266,0.3258,0.3253,0.3237,0.3225,0.335,0.335,0.335,0,0,0.3149,0.3173,0.3165,0.3179,0.3193,0.3186,0.3244,0.3234,0.3229,0.3291,0.3275,0.3293,0.3313,0.3286,0.3275,0.3298,0.322,0.3251,0.3244,0.3244,0.323,0.3218,0.3208,0.3346,0.3347,0.3347,0,0,0.3066,0.3082,0.3058,0.3072,0.3094,0.3122,0.3116,0.3147,0.3162,0.3147,0.3193,0.3189,0.3188,0.3201,0.3208,0.3132,0.3167,0.3131,0.3077,0.3061,0.3051,0.3043,0.3017,0.3007,0.3126,0.3126,0.3126,0,0.3008,0.2999,0.3042,0.3029,0.3034,0.3091,0.3068,0.3079,0.31,0.3103,0.3129,0.313,0.3148,0.3125,0.3107,0.311,0.3106,0.3128,0.3049,0.3041,0.3034,0.301,0.3,0.3122,0.3122,0.3123,0.3123,0,0.2928,0.2921,0.2899,0.2919,0.2922,0.2904,0.2946,0.2943,0.2973,0.2998,0.2983,0.3006,0.3015,0.3012,0.304,0.2994,0.3008,0.3041,0.3086,0.3017,0.2995,0.2986,0.3115,0.3117,0.3118,0.3119,0,0,0.2793,0.2839,0.2831,0.2841,0.2871,0.2867,0.2852,0.2862,0.286,0.2873,0.2863,0.2862,0.2894,0.2901,0.2931,0.2917,0.2857,0.2952,0.2954,0.2934,0.281,0.2786,0.2774,0.2881,0.288,0.2878,0.2809,0,0.2716,0.2694,0.2733,0.2702,0.2697,0.2752,0.274,0.2757,0.278,0.278,0.2807,0.2806,0.2846,0.2852,0.284,0.2867,0.2833,0.2873,0.2873,0.2873,0.2866,0.2763,0.2736,0.2669,0.2801,0.2799,0.2798,0,0.2623,0.2633,0.2601,0.2635,0.2634,0.2622,0.2636,0.2634,0.2656,0.2674,0.2684,0.272,0.271,0.2754,0.2741,0.2767,0.277,0.2783,0.2782,0.2783,0.2831,0.2762,0.2649,0.2639,0.2785,0.2786,0.2787,0,0.2529,0.2535,0.2517,0.2525,0.2563,0.2554,0.2569,0.2593,0.2597,0.2609,0.2612,0.2622,0.2627,0.2635,0.2674,0.2702,0.2657,0.2703,0.2672,0.2671,0.266,0.266,0.2546,0.2661,0.2661,0.2661,0.2661,0,0.2439,0.2418,0.2476,0.2465,0.2443,0.249,0.2467,0.2489,0.251,0.2505,0.2553,0.2547,0.2598,0.2599,0.2629,0.2615,0.2617,0.2632,0.264,0.2628,0.2626,0.263,0.2636,0.2658,0.2659,0.266,0.266,0,0.233,0.2368,0.2353,0.2391,0.2401,0.2383,0.2417,0.2409,0.2436,0.2429,0.2431,0.2474,0.2477,0.2516,0.2528,0.2549,0.2523,0.2539,0.2515,0.2521,0.2488,0.2491,0.2373,0.236,0.2482,0.2481,0.248,0,0.2271,0.2256,0.2293,0.2294,0.2307,0.2307,0.2312,0.2357,0.236,0.2385,0.2375,0.2382,0.239,0.2393,0.2426,0.2436,0.2454,0.2412,0.2455,0.2444,0.2454,0.2455,0.2454,0.2402,0.2401,0.2399,0.2398,0,0.2161,0.2181,0.2186,0.2198,0.2202,0.2214,0.2228,0.2226,0.2277,0.2278,0.2282,0.2289,0.2302,0.2309,0.2325,0.2342,0.2379,0.2385,0.2378,0.2365,0.2352,0.236,0.2491,0.2387,0.2388,0.2389,0.239,0.239,0.2076,0.2066,0.2091,0.2096,0.2112,0.2125,0.212,0.2147,0.2152,0.2166,0.2193,0.2194,0.2218,0.2244,0.2258,0.226,0.2282,0.2272,0.2269,0.2266,0.226,0.2352,0.2263,0.2263,0.2264,0.2264,0.2264,0,0.1969,0.1989,0.1992,0.2012,0.2016,0.2051,0.207,0.2071,0.2071,0.209,0.2098,0.2104,0.2112,0.2146,0.2158,0.2153,0.217,0.2155,0.2156,0.2159,0.2239,0.2244,0.214,0.214,0.2141,0.2141,0.2141,0.2141,0.1914,0.19,0.1923,0.1918,0.1939,0.194,0.1948,0.1961,0.1977,0.1981,0.1988,0.2011,0.2037,0.2051,0.2061,0.2071,0.2073,0.2052,0.2067,0.2142,0.2153,0.2165,0.217,0.2052,0.2052,0.1987,0.1987,0.1986]},{"header":{"parameterUnit":"m.s-1","parameterCategory":1,"la1":30.2991,"la2":30.254,"lo1":-89.0895,"lo2":-89.0444,"dy":0.0017,"dx":0.0017,"nx":28,"ny":28,"refTime":"2024-04-30T09:00:00:Z","depth":0,"parameterNumber":3,"parameterNumberName":"V-component_of_WINDS"},"data":[0,0,0,0,0,0,0,0,0,0,0,0,0,0,0,0,0,0,0,0,0,0,0,0,0,0,0,0,0,0,0,0,0,0,0,0,0,0,0,0,0,0,0,0,0,0,0,0,0,0,0,0,0,0,0,0,0,0,0.2147,0.2147,0,0.2157,0.2157,0.2157,0.2171,0.2171,0.2171,0.2171,0.2182,0.2182,0.2183,0,0,0,0,0,0,0,0,0,0,0,0,0,0.2137,0.2137,0.2147,0.2147,0.2147,0.2157,0.2157,0.2157,0.2171,0.2171,0.2171,0.2172,0.2182,0.2182,0.2183,0,0,0,0,0,0,0,0,0,0,0,0,0,0.2143,0.2137,0.2147,0.2155,0.2156,0.2157,0.2157,0.2157,0.2171,0.2171,0.2171,0.2172,0.2182,0.2182,0.2183,0.2177,0,0,0.2183,0.2183,0,0,0,0,0,0,0,0,0.2143,0.2144,0.2154,0.2154,0.2155,0.2163,0.2158,0.2164,0.2171,0.2165,0.2171,0.2172,0.2176,0.2176,0.2178,0.2177,0.2178,0.2183,0.2183,0.2183,0.2183,0,0,0,0,0,0,0,0.2142,0.2143,0.2151,0.2154,0.2155,0.2157,0.2159,0.2159,0.2168,0.2166,0.2167,0.2168,0.2176,0.2177,0.2178,0.2178,0.2183,0.2183,0.2183,0.2183,0.2169,0.2168,0,0,0,0,0,0,0.2141,0.2143,0.2151,0.2151,0.215,0.2157,0.2159,0.216,0.2168,0.217,0.2167,0.2168,0.2177,0.2178,0.2178,0.2169,0.2183,0.2183,0.2183,0.2169,0.2169,0.2168,0,0,0,0,0,0,0.2141,0.2141,0.215,0.2147,0.2149,0.2157,0.2159,0.216,0.2161,0.217,0.2171,0.2167,0.2177,0.2178,0.2176,0.217,0.2183,0.2183,0.217,0.2169,0.2168,0.2153,0,0,0,0,0,0,0.214,0.2141,0.214,0.2147,0.2149,0.2148,0.2158,0.216,0.2162,0.2163,0.217,0.2171,0.2178,0.2176,0.2176,0.217,0.2183,0.217,0.217,0.2169,0.2154,0.2152,0.215,0,0,0,0,0,0.214,0.2136,0.214,0.2141,0.2147,0.2148,0.2149,0.2156,0.2161,0.2159,0.2164,0.2171,0.2171,0.2175,0.2176,0.217,0.2171,0.217,0.2169,0.2155,0.2152,0.215,0,0,0,0,0,0,0.2129,0.2137,0.2142,0.214,0.2143,0.215,0.2148,0.2154,0.2156,0.2157,0.2166,0.2167,0.2163,0.2167,0.2172,0.2163,0.2172,0.2171,0.2161,0.2158,0.2156,0.2155,0.2184,0,0,0,0,0,0.2127,0.2127,0.2134,0.2132,0.2133,0.214,0.2141,0.2146,0.2149,0.2151,0.2156,0.2159,0.2159,0.2159,0.216,0.2154,0.2154,0.215,0.2148,0.2146,0.2145,0.2139,0.2137,0.2165,0.2165,0.2165,0,0,0.2122,0.2126,0.2126,0.213,0.2133,0.2131,0.2141,0.2141,0.214,0.2151,0.2148,0.2152,0.2155,0.215,0.2149,0.2153,0.2137,0.2145,0.2144,0.2144,0.2138,0.2135,0.2133,0.2164,0.2164,0.2164,0,0,0.2112,0.2116,0.2113,0.2115,0.2118,0.2122,0.2121,0.2127,0.2129,0.2126,0.2134,0.2132,0.2133,0.2134,0.2135,0.2121,0.2127,0.2121,0.211,0.2104,0.2102,0.21,0.2092,0.2089,0.212,0.212,0.212,0,0.2105,0.2104,0.2111,0.2109,0.2109,0.2117,0.2113,0.2115,0.2119,0.2118,0.2123,0.2122,0.2125,0.2119,0.2115,0.2116,0.2114,0.212,0.2101,0.21,0.2098,0.209,0.2088,0.2119,0.2119,0.2119,0.2119,0,0.2094,0.2093,0.209,0.2092,0.2092,0.2089,0.2094,0.2093,0.2097,0.21,0.2095,0.2099,0.2099,0.2098,0.2103,0.2091,0.2094,0.21,0.2109,0.2094,0.2087,0.2085,0.2118,0.2118,0.2118,0.2119,0,0,0.2081,0.2083,0.2082,0.2081,0.2083,0.2082,0.2078,0.2077,0.2075,0.2076,0.2071,0.207,0.2075,0.2075,0.208,0.2075,0.2059,0.2081,0.2081,0.2075,0.2044,0.2038,0.2034,0.2063,0.2063,0.2062,0.2042,0,0.207,0.2063,0.2067,0.2059,0.2056,0.2062,0.2058,0.2059,0.206,0.2058,0.206,0.2058,0.2065,0.2065,0.206,0.2062,0.2053,0.2064,0.2058,0.2057,0.2055,0.2031,0.2026,0.2007,0.204,0.204,0.2039,0,0.2057,0.2056,0.2047,0.2046,0.2045,0.2042,0.2039,0.2037,0.2036,0.2037,0.2036,0.204,0.2035,0.2043,0.2034,0.2041,0.2039,0.2039,0.2038,0.2037,0.2047,0.2028,0.2002,0.1998,0.2036,0.2036,0.2036,0,0.2045,0.2041,0.2034,0.2034,0.2033,0.203,0.2029,0.2029,0.2027,0.2024,0.2022,0.202,0.2018,0.2015,0.2018,0.2024,0.2007,0.2017,0.2007,0.2006,0.2002,0.2002,0.1974,0.2003,0.2003,0.2003,0.2003,0,0.2032,0.2026,0.2028,0.2024,0.2016,0.202,0.2012,0.2012,0.2011,0.2005,0.2011,0.2006,0.2011,0.2005,0.2008,0.1998,0.1998,0.1997,0.1998,0.1996,0.1996,0.1994,0.1995,0.2003,0.2003,0.2003,0.2003,0,0.2018,0.2019,0.2012,0.2011,0.201,0.2004,0.2002,0.1997,0.1998,0.1991,0.199,0.1991,0.1985,0.1987,0.1981,0.1983,0.1969,0.1972,0.1969,0.1969,0.1958,0.1958,0.1926,0.192,0.1955,0.1955,0.1954,0,0.2009,0.2004,0.2001,0.1997,0.1996,0.1991,0.1987,0.199,0.1986,0.1982,0.1977,0.1971,0.1966,0.1955,0.1955,0.1949,0.1951,0.194,0.1951,0.1948,0.1948,0.1948,0.1946,0.1938,0.1937,0.1937,0.1937,0,0.1993,0.1993,0.1988,0.1981,0.1977,0.1973,0.1969,0.1965,0.1967,0.1962,0.1955,0.195,0.1942,0.1935,0.1929,0.1928,0.1932,0.1933,0.193,0.1928,0.1925,0.1924,0.1961,0.1934,0.1934,0.1935,0.1935,0.1935,0.198,0.1974,0.197,0.1963,0.1959,0.1954,0.1948,0.1947,0.1941,0.1933,0.1935,0.1926,0.1921,0.1913,0.1911,0.1903,0.1907,0.1904,0.1902,0.1901,0.1898,0.1927,0.1902,0.1902,0.1902,0.1903,0.1903,0,0.1962,0.1958,0.1952,0.1945,0.1938,0.1941,0.1936,0.193,0.1921,0.1917,0.191,0.19,0.1892,0.189,0.1882,0.1875,0.1876,0.1873,0.1873,0.1872,0.1896,0.1898,0.1872,0.1872,0.1872,0.1872,0.1872,0.1872,0.1952,0.1941,0.1939,0.1925,0.1922,0.1912,0.1908,0.1903,0.1898,0.1886,0.1878,0.1876,0.1872,0.1862,0.1854,0.1854,0.185,0.1845,0.1845,0.1867,0.187,0.1873,0.1875,0.1844,0.1844,0.1821,0.182,0.182]}]]